Regional Weather Roundup
Issued by NWS

Home | Current Version | Previous Version | Text Only | Print | Product List | Glossary On
Versions: 1 2 3 4 5 6 7 8 9 10 11 12 13 14 15 16 17 18 19 20 21 22 23 24 25 26 27 28 29 30 31 32 33 34 35 36 37 38 39 40 41 42 43 44 45 46 47 48 49 50
371
ASUS43 KMKX 020811
RWRWI

WISCONSIN REGIONAL WEATHER ROUNDUP
NATIONAL WEATHER SERVICE MILWAUKEE/SULLIVAN WI
300 AM CDT MON MAY 02 2016

NOTE: "FAIR" INDICATES FEW OR NO CLOUDS BELOW 12,000 FEET WITH NO
SIGNIFICANT WEATHER AND/OR OBSTRUCTIONS TO VISIBILITY.

WIZ001-002-006>008-014>016-023>028-020900-
NORTHWEST WISCONSIN

CITY           SKY/WX    TMP DP  RH WIND       PRES   REMARKS
SUPERIOR ARPT  PTCLDY    29  29 100 CALM      30.15S
ASHLAND        FOG       28  28 100 SW3       30.14F VSB 1/2
HAYWARD        CLEAR     31  28  89 CALM      30.12F
SIREN          CLEAR     33  31  92 CALM      30.13S
CUMBERLAND     CLEAR     37  32  81 CALM      30.11S
RICE LAKE      CLEAR     39  35  85 CALM      30.13S
CHETEK         CLEAR     38  33  83 E5        30.12S WCI  35
LADYSMITH      PTCLDY    36  33  87 CALM      30.14R
EAU CLAIRE     PTCLDY    40  35  83 CALM      30.11S
MENOMONIE      CLEAR     40  31  70 CALM      30.11S
NEW RICHMOND   CLEAR     39  33  80 N3        30.11F
OSCEOLA        CLEAR     38  33  80 CALM      30.14F
$$

WIZ003>005-009-010-017-018-020900-
NORTH CENTRAL WISCONSIN

CITY           SKY/WX    TMP DP  RH WIND       PRES   REMARKS
MANITOWISH WTR CLEAR     31  31 100 CALM      30.12R
ARBOR VITAE    CLEAR     34  32  92 CALM      30.12S
WOODRUFF       CLEAR     34  32  92 CALM      30.12S
RHINELANDER    CLEAR     34  28  79 CALM      30.12S
EAGLE RIVER    PTCLDY    29  29 100 CALM      30.11S FOG
LAND O LAKES   CLEAR     29  29  98 CALM      30.12S
PHILLIPS       CLEAR     33  32  94 CALM      30.11S
TOMAHAWK       CLEAR     30  28  94 CALM      30.13S
MEDFORD        CLEAR     36  34  92 CALM      30.11S
MERRILL        CLEAR     32  32  98 CALM      30.13R
$$

WIZ029-030-035-036-043>047-020900-
CENTRAL WISCONSIN

CITY           SKY/WX    TMP DP  RH WIND       PRES   REMARKS
WAUSAU         PTCLDY    41  35  79 N3        30.10S
MOSINEE        CLEAR     39  34  81 N5        30.12S
MARSHFIELD     CLEAR     40  33  76 CALM      30.11R
STEVENS POINT  PTCLDY    32  30  94 CALM      30.12S
WAUPACA        CLEAR     40  35  84 N3        30.11S
WAUTOMA        CLEAR     34  33  96 CALM      30.12R
WISC RAPIDS    PTCLDY    38  32  79 CALM      30.12S
CAMP DOUGLAS     N/A     32  32 100 W1        30.11S
$$

WIZ011>013-019>022-031-037>040-048>050-020900-
NORTHEAST WISCONSIN

CITY           SKY/WX    TMP DP  RH WIND       PRES   REMARKS
ANTIGO         CLEAR     32  31  95 CALM      30.11S
SHAWANO        CLEAR     41  34  76 N3        30.11S
OCONTO         CLEAR     36  35  95 CALM      30.09F
STURGEON BAY   CLEAR     41  34  75 N8        30.11S
GREEN BAY      CLEAR     40  35  83 N7        30.10S
MANITOWOC      CLEAR     40  35  83 NW5       30.09S
APPLETON       CLEAR     37  32  81 N6        30.08S WCI  33
CLINTONVILLE   CLEAR     39  32  75 CALM      30.11S
OSHKOSH        CLEAR     41  37  86 N3        30.09S
$$

WIZ032>034-041-042-053>061-020900-
SOUTHWEST WISCONSIN

CITY           SKY/WX    TMP DP  RH WIND       PRES   REMARKS
LA CROSSE      PTCLDY    42  38  85 CALM      30.12R
SPARTA         CLEAR     31  30  97 CALM      30.13R
VIROQUA        CLEAR     41  36  83 CALM      30.10S
BOSCOBEL       FOG       39  38  96 CALM      30.11S VSB 1/4
PRAIRIE DU CHI DRZL/FOG  43  41  95 CALM      30.12R VSB 1/4
PLATTEVILLE    CLOUDY    43  42  95 N8        30.07F
$$

WIZ056-057-062-063-064-067-068-020900-
SOUTH CENTRAL WISCONSIN

CITY           SKY/WX    TMP DP  RH WIND       PRES   REMARKS
REEDSBURG      CLEAR     37  37  97 CALM      30.09F
BARABOO/DELLS  MOCLDY    37  36  95 CALM      30.09F
LONE ROCK      PTCLDY    36  35  96 CALM      30.10F
MINERAL POINT  CLOUDY    45  43  93 N5        30.07S
MADISON        CLOUDY    46  41  82 N5        30.08S
MIDDLETON      CLOUDY    47  42  83 NE5       30.08F
WATERTOWN      CLOUDY    46  43  89 N3        30.08R
MONROE         CLOUDY    45  45 100 NE9       30.06S
JANESVILLE     CLOUDY    46  45  93 N6        30.06S
$$

WIZ051-052-058>065-066-070>072-020900-
SOUTHEAST WISCONSIN

CITY           SKY/WX    TMP DP  RH WIND       PRES   REMARKS
MILWAUKEE      CLOUDY    44  40  85 N8        30.07R
WAUKESHA       CLOUDY    43  41  93 N3        30.08R
MILWAUKEE/TIMM CLOUDY    45  37  76 N5        30.08R
RACINE         CLOUDY    43  40  89 N6        30.08R
BURLINGTON     CLOUDY    44  43  97 N5        30.05F
KENOSHA        CLOUDY    44  41  89 N5        30.05F
FOND DU LAC    PTCLDY    42  37  82 NW5       30.08S
SHEBOYGAN      PTCLDY    42  35  76 N5        30.08S
WEST BEND      CLOUDY    43  36  75 CALM      30.08S
JUNEAU         CLOUDY    45  39  81 N5        30.09S
$$

LSZ147-162-020900-
LAKE SUPERIOR

STATION/POSITION TIME  TEMP    WIND        PRES    WAVE
                       AIR SEA DIR/SP/G            HT/PER
                 (UTC) (F)     (DEG/KT/KT) (MB)    (FT/S)
W MID LAKE BUOY  0750   38 36  350/  4/  4 1021.1F   1/ 5
DEVILS ISLAND    0800   39     120/  1/  1 1021.3F
SAXON HARBOR     0700   30     190/  3/  4 1020.3S
$$

LMZ867-665-643>646-020900-
LAKE MICHIGAN

STATION/POSITION TIME  TEMP    WIND        PRES    WAVE
                       AIR SEA DIR/SP/G            HT/PER
                 (UTC) (F)     (DEG/KT/KT) (MB)    (FT/S)
CHAMBERS ISLAND  0700   42     330/  5/  5 1019.3S
N MID LAKE BUOY  0750   40 38  310/  6/  6 1018.4F   1
NORTHPORT PIER   0700   42     330/  8/ 11 1019.0S
KEWAUNEE LAKESHO 0700   44     340/  4/  6 1018.1R
SHEBOYGAN LAKESH 0800   43     360/ 12/ 13 1019.3R
PORT WASHINGTON  0740   46     360/  6/ 11 1019.0S
S MID LAKE BUOY  0750   42 40   20/  8/ 10 1017.3R   2/ 4
KENOSHA   LAKESH 0800   45      20/ 10/ 11 1017.6F
$$

TC  - TEMPERATURE IN CELSIUS
VSB - VISIBILITY IN STATUTE MILES
WCI - WIND CHILL INDEX
HX  - HEAT INDEX





USA.gov is the U.S. government's official web portal to all federal, state and local government web resources and services.